Home > Weather > Yuma > Past weeks

Flag for USA Past Weather in Yuma, Arizona, USA — Yesterday and Last 2 Weeks

Now
109 °F

Partly sunny.


Feels Like: 111 °F
Forecast: 89 / 112 °F
Wind: 10 mph from South

Location: Yuma Marine Corps Air Station

Current Time: Jul 27, 2016 at 7:59:02 PM

Latest Report: Jul 27, 2016 at 6:57 PM


Visibility: 10 mi

Pressure: 29.66 "Hg

Humidity: 20%

Dew Point: 60 °F

Location of YumaLocation

Past Weather in Yuma — Graph

°F

Yuma Temperature Yesterday

Maximum temperature yesterday: 107 °F (at 3:57 PM)
Minimum temperature yesterday: 85 °F (at 2:57 AM)
Average temperature yesterday: 95 °F

High & Low Weather Summary for the Past Weeks

 TemperatureHumidityPressure
High114 °F (Jul 21, 3:57 PM)72% (Jul 26, 2:57 AM)29.92 "Hg (Jul 26, 2:57 AM)
Low82 °F (Jul 13, 4:57 AM)7% (Jul 12, 5:57 PM)29.66 "Hg (Jul 27, 5:57 PM)
Average97 °F31%29.78 "Hg
* Reported Jul 12 5:57 PM — Jul 27 5:57 PM, Yuma, Weather by CustomWeather, © 2016

Note: Actual official high and low records may vary slightly from our data, if they occured in-between our weather recording intervals... More about our weather records

Advertising

Yuma Weather History for the Previous 24 Hours

Scroll right to see more
 ConditionsComfort  
Time TempWeatherWind HumidityBarometerVisibility
5:57 PM
Wed, Jul 27
110 °FPartly sunny.10 mph19%29.66 "Hg10 mi
4:57 PM112 °FPartly sunny.8 mph17%29.67 "Hg10 mi
3:57 PM112 °FPartly sunny.14 mph19%29.69 "Hg10 mi
2:57 PM111 °FPartly sunny.14 mph19%29.72 "Hg10 mi
1:57 PM110 °FPartly sunny.10 mph20%29.74 "Hg10 mi
12:57 PM109 °FScattered clouds.12 mph22%29.77 "Hg10 mi
11:57 AM106 °FScattered clouds.13 mph24%29.79 "Hg10 mi
10:57 AM104 °FScattered clouds.15 mph25%29.81 "Hg10 mi
9:57 AM101 °FScattered clouds.14 mph27%29.81 "Hg10 mi
8:57 AM97 °FScattered clouds.9 mph29%29.80 "Hg10 mi
7:57 AM94 °FScattered clouds.3 mph32%29.79 "Hg10 mi
6:57 AM91 °FPassing clouds.No wind39%29.78 "Hg10 mi
5:57 AM88 °FPassing clouds.3 mph43%29.76 "Hg10 mi
4:57 AM88 °FClear.No wind42%29.74 "Hg10 mi
3:57 AM88 °FClear.5 mph43%29.72 "Hg10 mi
2:57 AM90 °FClear.14 mph39%29.72 "Hg10 mi
1:57 AM90 °FClear.15 mph45%29.72 "Hg10 mi
12:57 AM90 °FClear.12 mph45%29.73 "Hg10 mi
11:57 PM
Tue, Jul 26
91 °FClear.7 mph44%29.73 "Hg10 mi
10:57 PM91 °FPassing clouds.9 mph42%29.73 "Hg10 mi
9:57 PM93 °FPassing clouds.7 mph44%29.73 "Hg10 mi
8:57 PM96 °FPassing clouds.9 mph37%29.70 "Hg10 mi
7:57 PM103 °FPassing clouds.15 mph29%29.69 "Hg10 mi
Weather by CustomWeather, © 2016

See weather overviewHow to use our weather pages